timestamp,wind_dir_avg,wind_spd_avg,wind_spd_max_dir,wind_spd_gust,battery_voltage,lat,long
2021-12-03 00:04:00+00:00,185.0,8.68,185.0,10.44,12.57,47.59359,-54.27349
2021-12-03 00:14:01+00:00,186.0,8.57,195.0,9.49,12.57,47.59359,-54.27349
2021-12-03 00:24:01+00:00,186.0,8.82,180.0,9.91,12.57,47.59359,-54.27349
2021-12-03 00:34:01+00:00,190.0,8.18,192.0,9.63,12.57,47.59359,-54.27349
2021-12-03 00:44:01+00:00,194.0,9.45,196.0,11.46,12.57,47.59359,-54.27349
2021-12-03 00:54:01+00:00,184.0,10.4,201.0,11.9,12.57,47.59359,-54.27349
2021-12-03 01:04:01+00:00,185.0,10.83,184.0,12.09,12.57,47.59359,-54.27349
2021-12-03 01:14:01+00:00,184.0,10.53,191.0,11.94,12.49,47.59359,-54.27349
2021-12-03 01:24:01+00:00,184.0,10.66,185.0,12.48,12.49,47.59359,-54.27349
2021-12-03 01:34:01+00:00,179.0,11.26,182.0,12.6,12.49,47.59359,-54.27349
2021-12-03 01:44:01+00:00,183.0,11.67,182.0,12.76,12.49,47.59359,-54.27349
2021-12-03 01:54:01+00:00,180.0,12.12,183.0,13.56,12.49,47.59359,-54.27349
2021-12-03 02:04:01+00:00,180.0,11.7,180.0,12.82,12.49,47.59359,-54.27349
2021-12-03 02:14:00+00:00,182.0,11.1,181.0,12.46,12.49,47.59359,-54.27349
2021-12-03 02:24:00+00:00,178.0,10.71,163.0,12.59,12.49,47.59359,-54.27349
2021-12-03 02:34:00+00:00,180.0,10.31,182.0,11.72,12.49,47.59359,-54.27349
2021-12-03 02:44:00+00:00,175.0,11.54,178.0,13.84,12.49,47.59359,-54.27349
2021-12-03 02:54:00+00:00,185.0,11.25,185.0,12.5,12.49,47.59359,-54.27349
2021-12-03 03:04:00+00:00,175.0,10.1,176.0,11.56,12.49,47.59359,-54.27349
2021-12-03 03:14:00+00:00,178.0,9.77,157.0,12.05,12.49,47.59359,-54.27349
2021-12-03 03:24:00+00:00,179.0,11.39,180.0,13.15,12.49,47.59359,-54.27349
2021-12-03 03:34:00+00:00,178.0,11.39,179.0,14.54,12.49,47.59359,-54.27349
2021-12-03 03:44:00+00:00,186.0,11.8,186.0,14.15,12.49,47.59359,-54.27349
2021-12-03 03:54:00+00:00,184.0,8.24,183.0,9.66,12.49,47.59359,-54.27349
2021-12-03 04:04:00+00:00,187.0,11.41,178.0,13.37,12.49,47.59359,-54.27349
2021-12-03 04:14:01+00:00,185.0,12.15,186.0,14.0,12.49,47.59359,-54.27349
2021-12-03 04:24:01+00:00,184.0,13.45,173.0,15.98,12.49,47.59359,-54.27349
2021-12-03 04:34:01+00:00,177.0,14.46,182.0,17.55,12.49,47.59359,-54.27349
2021-12-03 04:44:01+00:00,182.0,11.31,158.0,13.67,12.49,47.59359,-54.27349
2021-12-03 04:54:01+00:00,183.0,14.03,183.0,17.3,12.49,47.59359,-54.27349
2021-12-03 05:04:01+00:00,176.0,16.37,182.0,18.42,12.49,47.59359,-54.27349
2021-12-03 05:14:00+00:00,176.0,14.99,173.0,17.54,12.49,47.59359,-54.27349
2021-12-03 05:24:00+00:00,177.0,16.85,182.0,18.43,12.49,47.59359,-54.27349
2021-12-03 05:34:00+00:00,187.0,17.24,190.0,20.14,12.49,47.59359,-54.27349
2021-12-03 05:44:00+00:00,173.0,16.43,166.0,18.91,12.49,47.59359,-54.27349
2021-12-03 05:54:00+00:00,179.0,13.42,178.0,16.67,12.49,47.59359,-54.27349
2021-12-03 06:04:00+00:00,174.0,14.63,180.0,18.52,12.49,47.59359,-54.27349
2021-12-03 06:14:00+00:00,173.0,13.67,176.0,15.87,12.49,47.59359,-54.27349
2021-12-03 06:24:00+00:00,177.0,12.84,184.0,14.54,12.49,47.59359,-54.27349
2021-12-03 06:34:00+00:00,178.0,14.12,178.0,17.35,12.49,47.59359,-54.27349
2021-12-03 06:44:00+00:00,178.0,14.12,173.0,17.11,12.49,47.59359,-54.27349
2021-12-03 06:54:00+00:00,180.0,12.24,181.0,14.07,12.49,47.59359,-54.27349
2021-12-03 07:04:00+00:00,176.0,13.22,185.0,17.73,12.49,47.59359,-54.27349
2021-12-03 07:14:01+00:00,176.0,15.55,173.0,18.75,12.41,47.59359,-54.27349
2021-12-03 07:24:01+00:00,180.0,15.25,183.0,18.59,12.41,47.59359,-54.27349
2021-12-03 07:34:01+00:00,181.0,14.48,173.0,17.58,12.41,47.59359,-54.27349
2021-12-03 07:44:01+00:00,184.0,16.88,186.0,20.21,12.41,47.59359,-54.27349
2021-12-03 07:54:01+00:00,181.0,14.44,179.0,17.86,12.41,47.59359,-54.27349
2021-12-03 08:04:01+00:00,181.0,16.5,186.0,19.69,12.41,47.59359,-54.27349
2021-12-03 08:14:01+00:00,183.0,16.92,190.0,20.62,12.41,47.59359,-54.27349
2021-12-03 08:24:01+00:00,183.0,16.58,179.0,20.33,12.41,47.59359,-54.27349
2021-12-03 08:34:01+00:00,183.0,15.84,188.0,18.44,12.41,47.59359,-54.27349
2021-12-03 08:44:01+00:00,184.0,16.65,180.0,19.64,12.41,47.59359,-54.27349
2021-12-03 08:54:01+00:00,184.0,15.12,177.0,18.5,12.41,47.59359,-54.27349
2021-12-03 09:04:01+00:00,189.0,17.61,193.0,20.16,12.41,47.59359,-54.27349
2021-12-03 09:14:00+00:00,185.0,15.03,184.0,18.45,12.41,47.59359,-54.27349
2021-12-03 09:24:00+00:00,186.0,15.64,189.0,18.13,12.41,47.59359,-54.27349
2021-12-03 09:34:00+00:00,184.0,18.14,178.0,20.51,12.41,47.59359,-54.27349
2021-12-03 09:44:00+00:00,189.0,17.05,189.0,19.92,12.41,47.59359,-54.27349
2021-12-03 09:54:00+00:00,184.0,17.64,177.0,20.99,12.41,47.59359,-54.27349
2021-12-03 10:04:00+00:00,183.0,18.54,182.0,21.57,12.41,47.59359,-54.27349
2021-12-03 10:14:00+00:00,179.0,18.91,183.0,22.16,12.41,47.59359,-54.27349
2021-12-03 10:24:00+00:00,176.0,18.85,172.0,24.19,12.41,47.59359,-54.27349
2021-12-03 10:34:00+00:00,180.0,18.14,182.0,22.32,12.41,47.59359,-54.27349
2021-12-03 10:44:00+00:00,179.0,17.55,177.0,20.1,12.41,47.59359,-54.27349
2021-12-03 10:54:00+00:00,178.0,17.54,172.0,20.04,12.41,47.59359,-54.27349
2021-12-03 11:04:00+00:00,177.0,18.68,172.0,23.03,12.41,47.59359,-54.27349
2021-12-03 11:14:01+00:00,179.0,20.63,180.0,23.89,12.41,47.59359,-54.27349
2021-12-03 11:24:01+00:00,181.0,19.34,184.0,22.64,12.41,47.59359,-54.27349
2021-12-03 11:34:01+00:00,175.0,18.98,168.0,22.13,12.41,47.59359,-54.27349
2021-12-03 11:44:01+00:00,180.0,21.84,180.0,25.46,12.41,47.59359,-54.27349
2021-12-03 11:54:01+00:00,175.0,19.31,170.0,23.07,12.41,47.59359,-54.27349
2021-12-03 12:04:01+00:00,181.0,19.9,185.0,23.64,12.41,47.59359,-54.27349
2021-12-03 12:14:01+00:00,180.0,20.35,179.0,24.63,12.41,47.59359,-54.27349
2021-12-03 12:24:01+00:00,178.0,18.1,177.0,22.44,12.41,47.59359,-54.27349
2021-12-03 12:34:01+00:00,181.0,21.08,180.0,26.32,12.41,47.59359,-54.27349
2021-12-03 12:44:01+00:00,178.0,21.41,179.0,26.53,12.41,47.59359,-54.27349
2021-12-03 12:54:01+00:00,179.0,20.64,179.0,25.01,12.41,47.59359,-54.27349
2021-12-03 13:04:01+00:00,176.0,18.57,162.0,23.16,12.41,47.59359,-54.27349
2021-12-03 13:14:01+00:00,179.0,19.38,173.0,24.43,12.65,47.59359,-54.27349
2021-12-03 13:24:01+00:00,180.0,20.29,184.0,23.61,12.65,47.59359,-54.27349
2021-12-03 13:34:01+00:00,175.0,19.36,178.0,21.83,12.65,47.59359,-54.27349
2021-12-03 13:44:01+00:00,178.0,22.53,180.0,27.08,12.65,47.59359,-54.27349
2021-12-03 13:54:01+00:00,177.0,19.16,175.0,21.89,12.65,47.59359,-54.27349
2021-12-03 14:04:01+00:00,176.0,20.7,174.0,25.81,12.65,47.59359,-54.27349
2021-12-03 14:14:00+00:00,179.0,21.07,182.0,25.82,12.89,47.59359,-54.27349
2021-12-03 14:24:00+00:00,174.0,20.13,177.0,24.26,12.89,47.59359,-54.27349
2021-12-03 14:34:00+00:00,176.0,19.69,184.0,24.89,12.89,47.59359,-54.27349
2021-12-03 14:44:00+00:00,171.0,22.04,174.0,26.71,12.89,47.59359,-54.27349
2021-12-03 14:54:00+00:00,175.0,21.54,177.0,24.54,12.89,47.59359,-54.27349
2021-12-03 15:04:00+00:00,173.0,19.22,174.0,22.33,12.89,47.59359,-54.27349
2021-12-03 15:14:00+00:00,177.0,19.49,178.0,23.62,12.81,47.59359,-54.27349
2021-12-03 15:24:00+00:00,175.0,20.83,176.0,24.82,12.81,47.59359,-54.27349
2021-12-03 15:34:00+00:00,176.0,20.34,182.0,24.38,12.81,47.59359,-54.27349
2021-12-03 15:44:00+00:00,176.0,18.84,178.0,22.44,12.81,47.59359,-54.27349
2021-12-03 15:54:00+00:00,175.0,18.8,177.0,22.38,12.81,47.59359,-54.27349
2021-12-03 16:04:00+00:00,176.0,18.77,173.0,22.24,12.81,47.59359,-54.27349
2021-12-03 16:14:01+00:00,183.0,21.33,189.0,24.88,12.57,47.59359,-54.27349
2021-12-03 16:24:01+00:00,184.0,19.63,178.0,23.1,12.57,47.59359,-54.27349
2021-12-03 16:34:01+00:00,184.0,18.64,185.0,23.18,12.57,47.59359,-54.27349
2021-12-03 16:44:01+00:00,193.0,19.27,201.0,22.87,12.57,47.59359,-54.27349
2021-12-03 16:54:01+00:00,197.0,18.54,198.0,22.55,12.57,47.59359,-54.27349
2021-12-03 17:04:01+00:00,199.0,18.85,199.0,22.6,12.57,47.59359,-54.27349
2021-12-03 17:14:01+00:00,194.0,18.15,201.0,21.52,12.57,47.59359,-54.27349
2021-12-03 17:24:01+00:00,190.0,17.5,196.0,19.89,12.57,47.59359,-54.27349
2021-12-03 17:34:01+00:00,187.0,16.48,193.0,19.07,12.57,47.59359,-54.27349
2021-12-03 17:44:01+00:00,193.0,16.46,194.0,19.34,12.57,47.59359,-54.27349
2021-12-03 17:54:01+00:00,184.0,15.35,189.0,20.67,12.57,47.59359,-54.27349
2021-12-03 18:04:01+00:00,178.0,17.02,176.0,20.89,12.57,47.59359,-54.27349
2021-12-03 18:14:01+00:00,182.0,16.78,179.0,20.54,12.41,47.59359,-54.27349
2021-12-03 18:24:01+00:00,190.0,15.85,193.0,20.42,12.41,47.59359,-54.27349
2021-12-03 18:34:01+00:00,192.0,14.71,195.0,17.2,12.41,47.59359,-54.27349
2021-12-03 18:44:01+00:00,194.0,16.4,198.0,19.33,12.41,47.59359,-54.27349
2021-12-03 18:54:01+00:00,197.0,14.15,200.0,16.35,12.41,47.59359,-54.27349
2021-12-03 19:04:01+00:00,194.0,12.54,197.0,13.87,12.41,47.59359,-54.27349
2021-12-03 19:14:01+00:00,199.0,13.1,211.0,14.81,12.41,47.59359,-54.27349
2021-12-03 19:24:01+00:00,200.0,12.36,206.0,14.64,12.41,47.59359,-54.27349
2021-12-03 19:34:01+00:00,195.0,13.82,204.0,16.52,12.41,47.59359,-54.27349
2021-12-03 19:44:01+00:00,194.0,15.05,201.0,17.54,12.41,47.59359,-54.27349
2021-12-03 19:54:01+00:00,203.0,14.64,201.0,16.98,12.41,47.59359,-54.27349
2021-12-03 20:04:01+00:00,203.0,17.95,201.0,20.12,12.41,47.59359,-54.27349
2021-12-03 21:14:01+00:00,218.0,13.64,217.0,18.19,12.41,47.59359,-54.27349
2021-12-03 21:24:01+00:00,216.0,14.7,220.0,17.02,12.41,47.59359,-54.27349
2021-12-03 21:34:01+00:00,219.0,14.67,213.0,18.54,12.41,47.59359,-54.27349
2021-12-03 21:44:01+00:00,221.0,15.41,219.0,19.09,12.41,47.59359,-54.27349
2021-12-03 21:54:01+00:00,225.0,15.43,220.0,18.26,12.41,47.59359,-54.27349
2021-12-03 22:04:01+00:00,235.0,16.76,232.0,19.54,12.41,47.59359,-54.27349
2021-12-03 22:14:01+00:00,229.0,16.11,227.0,19.6,12.41,47.59359,-54.27349
2021-12-03 22:24:01+00:00,229.0,14.48,233.0,17.89,12.41,47.59359,-54.27349
2021-12-03 22:34:01+00:00,244.0,19.54,241.0,23.65,12.41,47.59359,-54.27349
2021-12-03 22:44:01+00:00,239.0,16.09,237.0,18.15,12.41,47.59359,-54.27349
2021-12-03 22:54:01+00:00,237.0,15.85,245.0,21.46,12.41,47.59359,-54.27349
2021-12-03 23:04:01+00:00,235.0,12.28,236.0,14.89,12.41,47.59359,-54.27349
